Weather History for Henderson, KY

Change the Weather History Date:

Friday, September 27, 2013

  Actual Average Record
Temperature  
Mean Temperature 64 °F -  
Max Temperature 80 °F 77 °F 95 °F (1938)
Min Temperature 48 °F 52 °F 36 °F (1941)
Degree Days  
Heating Degree Days 1    
Growing Degree Days 14 (Base 50)    
Moisture  
Dew Point 53 °F    
Average Humidity 70    
Maximum Humidity 94    
Minimum Humidity 37    
Precipitation  
Precipitation 0.00 in - - ()
Sea Level Pressure  
Sea Level Pressure 30.08 in    
Wind  
Wind Speed 3 mph (ESE)    
Max Wind Speed 13 mph    
Max Gust Speed 17 mph    
Visibility 8 miles    
Events      
Averages and records for this station are not official NWS values.
T = Trace of Precipitation, MM = Missing Value Source: NWS Daily Summary

Daily Weather History Graph

Daily Weather History Graph

Search for Another Location

Airport:

Trip Planner

Search our weather history database for the weather conditions in past years. The results will help you decide how hot, cold, wet, or windy it might be!

Date:

Astronomy

Sep. 27, 2013 Rise Set
Actual Time 6:43 AM CDT 6:39 PM CDT
Civil Twilight 6:16 AM CDT 7:05 PM CDT
Nautical Twilight 5:46 AM CDT 7:36 PM CDT
Astronomical Twilight 5:15 AM CDT 8:06 PM CDT
Moon No Moon Rise 2:12 PM CDT (9/27)
Length of Visible Light 12h 48m
Length of Day
11h 56m
Last Quarter, 45% of the Moon is Illuminated
Sep 27
Last Quarter
Oct 4
New
Oct 11
First Quarter
Oct 18
Full
Oct 26
Last Quarter

Hourly Weather History & Observations

Time (CDT) Temp. Heat Index Dew Point Humidity Pressure Visibility Wind Dir Wind Speed Gust Speed Precip Events Conditions
12:15 AM 55.4 °F - 51.8 °F 88% 30.04 in 10.0 mi SE 3.5 mph - N/A   Clear
12:35 AM 55.4 °F - 51.8 °F 88% 30.04 in 10.0 mi ESE 3.5 mph - N/A   Clear
12:55 AM 53.6 °F - 51.8 °F 94% 30.05 in 10.0 mi Calm Calm - N/A   Clear
1:15 AM 53.6 °F - 51.8 °F 94% 30.05 in 10.0 mi East 3.5 mph - N/A   Clear
1:35 AM 53.6 °F - 50.0 °F 88% 30.05 in 10.0 mi Calm Calm - N/A   Clear
1:55 AM 51.8 °F - 48.2 °F 88% 30.06 in 7.0 mi Calm Calm - N/A   Clear
2:15 AM 51.8 °F - 48.2 °F 88% 30.06 in 5.0 mi Calm Calm - N/A   Clear
2:35 AM 51.8 °F - 50.0 °F 94% 30.06 in 4.0 mi Calm Calm - N/A   Clear
2:55 AM 51.8 °F - 50.0 °F 94% 30.05 in 2.5 mi Calm Calm - N/A   Clear
3:15 AM 51.8 °F - 48.2 °F 88% 30.06 in 2.0 mi Calm Calm - N/A   Clear
3:35 AM 51.8 °F - 48.2 °F 88% 30.06 in 0.2 mi Calm Calm - N/A   Unknown
3:55 AM 51.8 °F - 48.2 °F 88% 30.07 in 4.0 mi Calm Calm - N/A   Clear
4:15 AM 51.8 °F - 48.2 °F 88% 30.07 in 4.0 mi Calm Calm - N/A   Clear
4:35 AM 51.8 °F - 48.2 °F 88% 30.07 in 5.0 mi Calm Calm - N/A   Clear
4:55 AM 51.8 °F - 48.2 °F 88% 30.08 in 5.0 mi Calm Calm - N/A   Clear
5:15 AM 50.0 °F - 48.2 °F 94% 30.09 in 2.0 mi Calm Calm - N/A   Clear
5:35 AM 51.8 °F - 48.2 °F 88% 30.09 in 4.0 mi Calm Calm - N/A   Clear
5:55 AM 50.0 °F - 46.4 °F 87% 30.10 in 4.0 mi Calm Calm - N/A   Clear
6:15 AM 48.2 °F - 46.4 °F 93% 30.10 in 3.0 mi Calm Calm - N/A   Clear
6:35 AM 50.0 °F - 46.4 °F 87% 30.11 in 3.0 mi Calm Calm - N/A   Clear
6:55 AM 50.0 °F - 46.4 °F 87% 30.12 in 3.0 mi Calm Calm - N/A   Scattered Clouds
7:15 AM 50.0 °F - 48.2 °F 94% 30.12 in 3.0 mi Calm Calm - N/A   Scattered Clouds
7:35 AM 53.6 °F - 50.0 °F 88% 30.13 in 0.8 mi Calm Calm - N/A   Mostly Cloudy
7:55 AM 55.4 °F - 53.6 °F 94% 30.14 in 1.8 mi Calm Calm - N/A   Scattered Clouds
8:15 AM 60.8 °F - 57.2 °F 88% 30.14 in 2.5 mi Calm Calm - N/A   Clear
8:35 AM 62.6 °F - 57.2 °F 82% 30.14 in 5.0 mi Calm Calm - N/A   Clear
8:55 AM 64.4 °F - 59.0 °F 83% 30.14 in 6.0 mi Calm Calm - N/A   Clear
9:15 AM 66.2 °F - 60.8 °F 83% 30.14 in 8.0 mi ENE 4.6 mph - N/A   Clear
9:35 AM 68.0 °F - 59.0 °F 73% 30.14 in 10.0 mi East 3.5 mph - N/A   Clear
9:55 AM 69.8 °F - 59.0 °F 68% 30.14 in 10.0 mi ESE 3.5 mph - N/A   Clear
10:15 AM 71.6 °F - 57.2 °F 60% 30.14 in 10.0 mi East 4.6 mph - N/A   Clear
10:35 AM 73.4 °F - 59.0 °F 61% 30.14 in 10.0 mi East 3.5 mph - N/A   Clear
10:55 AM 73.4 °F - 59.0 °F 61% 30.14 in 10.0 mi ENE 4.6 mph - N/A   Clear
11:15 AM 75.2 °F - 57.2 °F 53% 30.13 in 10.0 mi NE 9.2 mph - N/A   Clear
11:35 AM 75.2 °F - 57.2 °F 53% 30.13 in 10.0 mi NE 6.9 mph - N/A   Clear
11:55 AM 75.2 °F - 57.2 °F 53% 30.12 in 10.0 mi East 8.1 mph - N/A   Clear
12:15 PM 77.0 °F - 55.4 °F 47% 30.12 in 10.0 mi ENE 10.4 mph - N/A   Clear
12:35 PM 78.8 °F - 53.6 °F 42% 30.11 in 10.0 mi NE 12.7 mph - N/A   Clear
12:55 PM 78.8 °F - 53.6 °F 42% 30.10 in 10.0 mi NNE 6.9 mph - N/A   Clear
1:15 PM 78.8 °F - 53.6 °F 42% 30.09 in 10.0 mi NE 6.9 mph - N/A   Clear
1:35 PM 80.6 °F 80.3 °F 53.6 °F 39% 30.08 in 10.0 mi ENE 9.2 mph - N/A   Clear
1:55 PM 80.6 °F - 51.8 °F 37% 30.07 in 10.0 mi East 5.8 mph - N/A   Clear
2:15 PM 80.6 °F - 51.8 °F 37% 30.07 in 10.0 mi SE 8.1 mph 17.3 mph N/A   Clear
2:35 PM 80.6 °F 80.3 °F 53.6 °F 39% 30.06 in 10.0 mi ESE 5.8 mph - N/A   Clear
2:55 PM 80.6 °F 80.3 °F 53.6 °F 39% 30.05 in 10.0 mi East 6.9 mph - N/A   Clear
3:15 PM 80.6 °F 80.3 °F 53.6 °F 39% 30.05 in 10.0 mi Calm Calm - N/A   Clear
3:35 PM 80.6 °F 80.3 °F 53.6 °F 39% 30.04 in 10.0 mi SE 5.8 mph - N/A   Clear
3:55 PM 80.6 °F 80.5 °F 55.4 °F 42% 30.04 in 10.0 mi ESE 6.9 mph - N/A   Clear
4:15 PM 80.6 °F 80.3 °F 53.6 °F 39% 30.04 in 10.0 mi East 9.2 mph - N/A   Clear
4:35 PM 80.6 °F 80.3 °F 53.6 °F 39% 30.04 in 10.0 mi East 9.2 mph - N/A   Clear
4:55 PM 80.6 °F 80.3 °F 53.6 °F 39% 30.04 in 10.0 mi East 9.2 mph - N/A   Clear
5:15 PM 80.6 °F 80.3 °F 53.6 °F 39% 30.04 in 10.0 mi SE 6.9 mph - N/A   Clear
5:35 PM 78.8 °F - 51.8 °F 39% 30.05 in 10.0 mi ESE 5.8 mph - N/A   Clear
5:55 PM 78.8 °F - 51.8 °F 39% 30.05 in 10.0 mi SE 5.8 mph - N/A   Clear
6:15 PM 75.2 °F - 53.6 °F 47% 30.05 in 10.0 mi SE 3.5 mph - N/A   Clear
6:35 PM 73.4 °F - 53.6 °F 50% 30.05 in 10.0 mi SE 3.5 mph - N/A   Clear
6:55 PM 71.6 °F - 55.4 °F 57% 30.05 in 10.0 mi SE 4.6 mph - N/A   Clear
7:15 PM 71.6 °F - 55.4 °F 57% 30.06 in 10.0 mi SE 4.6 mph - N/A   Clear
7:35 PM 68.0 °F - 55.4 °F 64% 30.06 in 10.0 mi SSE 5.8 mph - N/A   Clear
7:55 PM 66.2 °F - 55.4 °F 68% 30.06 in 10.0 mi SE 3.5 mph - N/A   Clear
8:15 PM 64.4 °F - 55.4 °F 73% 30.07 in 10.0 mi SE 4.6 mph - N/A   Clear
8:35 PM 64.4 °F - 55.4 °F 73% 30.07 in 10.0 mi Calm Calm - N/A   Clear
8:55 PM 60.8 °F - 55.4 °F 82% 30.08 in 10.0 mi Calm Calm - N/A   Clear
9:15 PM 59.0 °F - 55.4 °F 88% 30.08 in 10.0 mi Calm Calm - N/A   Clear
9:35 PM 59.0 °F - 53.6 °F 82% 30.08 in 10.0 mi Calm Calm - N/A   Clear
9:55 PM 57.2 °F - 53.6 °F 88% 30.08 in 10.0 mi Calm Calm - N/A   Clear
10:15 PM 57.2 °F - 53.6 °F 88% 30.08 in 10.0 mi Calm Calm - N/A   Clear
10:35 PM 57.2 °F - 53.6 °F 88% 30.08 in 10.0 mi Calm Calm - N/A   Clear
10:55 PM 57.2 °F - 53.6 °F 88% 30.08 in 10.0 mi ESE 3.5 mph - N/A   Clear
11:15 PM 62.6 °F - 55.4 °F 77% 30.07 in 10.0 mi SE 4.6 mph - N/A   Clear
11:35 PM 59.0 °F - 53.6 °F 82% 30.07 in 10.0 mi ESE 3.5 mph - N/A   Clear
11:55 PM 62.6 °F - 55.4 °F 77% 30.07 in 10.0 mi ESE 5.8 mph - N/A   Clear